XMM-NEWTON

Last updated on Thu Oct 23 2025 00:03:43 GMT+0000 (Coordinated Universal Time)

1 25989U 99066A 25297.00729299 .00000072 00000+0 00000+0 0 9993 2 25989 65.6666 286.0978 4766544 69.0646 0.1535 0.50134857 21827
UTC large
Height (km)
Speed (km/s)
/
Latitude / Longitude
Inclination (degrees)
Orbital Period (minutes)
Azimuth
Elevation
Range (km)
Doppler Factor

Next 0 passes for location: London (51.5072 / 0.1276)

Sorry there are no passes over London.